Regional Weather Roundup
Issued by NWS

Home | Current Version | Previous Version | Text Only | Print | Product List | Glossary On
Versions: 1 2 3 4 5 6 7 8 9 10 11 12 13 14 15 16 17 18 19 20 21 22 23 24 25 26 27 28 29 30 31 32 33 34 35 36 37 38 39 40 41 42 43 44 45 46 47 48 49 50
000
ASUS42 KKEY 051110
RWRKEY

FLORIDA REGIONAL WEATHER ROUNDUP FOR THE FLORIDA KEYS
NATIONAL WEATHER SERVICE KEY WEST FLORIDA
700 AM EDT WED AUG 05 2015

...SOUTH FLORIDA AND THE KEYS...

CITY           SKY/WX    TMP DP  RH WIND       PRES   REMARKS
FORT MYERS     CLEAR     77  76  96 NE3       30.07R
SW REGIONAL AP CLEAR     76  74  93 E5        30.08R
NAPLES         CLEAR     78  75  90 NE3       30.07S
MIAMI          MOCLDY    82  76  81 E3        30.07R
WEST KENDALL   PTCLDY    78  75  90 CALM      30.07R
HOMESTEAD      PTCLDY    81  77  88 SE3       30.07R
MARATHON       PTCLDY    84  78  82 E3        30.05S HX  95
BOCA CHICA NAS PTCLDY    83  75  77 E7        30.06R HX  90
KEY WEST INTL  PTCLDY    85  77  77 SE9       30.06R HX  95

...INTERNATIONAL WEATHER...

CITY           SKY/WX    TMP DP  RH WIND       PRES   REMARKS
NASSAU BAHAMAS PTCLDY    82  75  78 SE5       30.11S
CANCUN MEXICO  PTCLDY    81  77  89 E7        30.01R
COZUMEL MEXICO PTCLDY    72  72 100 CALM      30.00R

ADJACENT COASTAL WATERS...

STATION/POSITION TIME  SKY/WX   TEMP    WIND        PRES    WAVE
                                AIR SEA DIR/SP/G            HT/PER
                 (UTC)          (F)     (DEG/KT/KT) (MB)    (FT/S)
PULASKI SHOAL LI 1000            85     120/  8/ 10 1017.2F
SAND KEY         1050            84     130/ 10/ 12 1017.8R
SOMBRERO KEY     1100            85     110/  8/  9 1018.5R
LONG KEY         1100            85 88  130/  7/  8 1018.7R
MOLASSES REEF    1100            85 87  130/ 10/ 11 1018.2R
FOWEY ROCKS      NOT AVBL

$$



USA.gov is the U.S. government's official web portal to all federal, state and local government web resources and services.